NOAA 16 DEB, 41261

Orbit data source: Space-Track

NOAA 16 DEB, 41261 is space debris in SSO originally from a launch on Thu, 21 Sep 2000 UTC launched from the Air Force Western Test Range (AFWTR). Debris objects in space refer to the collection of defunct objects orbiting the Earth. Examples of debris include non-operational satellites, rocket bodies, and fragments generated from explosions, collisions, or faulty payload assembly.

Loading next visibility...
Identifier
41261, 2000-055FM
Orbit
SSO
Country
Flag of USUS
Related business
Manufacturer
Unknown
Mission
Spacecraft
Bus & Motor
Unknown
Mass
Unknown
Launch date (UTC)
2000-09-21 (25 years ago)
Launch vehicle
Unknown
Launch site
Air Force Western Test Range (AFWTR)
Object type
Payload
Rocket body
Debris
Shape & HBR
Unknown shape, 0.1 m
Radar Cross Section
Small (<0.1 m²)

Expand to show TLE details & history
Last TLE update: 2 days ago

TLE from 2 days ago
0 NOAA 16 DEB
1 41261U 00055FM  25348.76962361  .00002896  00000-0  14781-2 0  9994
2 41261  98.6675 358.6648 0035125  65.1014 295.3804 14.16092587513250
Epoch: 2025-12-14T18:28Z
TLE epoch observation values (Epoch: 2025-12-14T18:28:15.479Z)
Latitude
-0.00014°
Longitude
-2.07746°
Altitude
830.714 km
Speed
7.443 km/s
True Right ascension
23h 54m 39s
True Declination
0° 00' 00"
Sunlit
Object was in daylight at epoch
Visualization orbit readout
Latitude
Unknown
Longitude
Unknown
Altitude
Unknown
Speed
Unknown
Apparent Right ascension
Unknown
Apparent Declination
Unknown
Sunlit
N/A
Visualization observer readout
Local Sidereal Time
09:43:58
Azimuth
Unknown
Elevation
Unknown
Doppler factor
Unknown
Orbital elements
Apogee altitude
861.098 km
Perigee altitude
810.421 km
Semi-major axis
7,213.896 km
Eccentricity
0.00351
Inclination
98.6675°
RAAN
358.6648°
Arg. of periapsis
65.1014°
True anomaly
295.01606°
Mean anomaly
295.3804°
Eccentric anomaly
295.1983°
Mean motion
3.54232 °/min
Orbital period
101.63 mins
BSTAR
0.0014781
Loading maneuver chart data...
Computing Atmospheric mass density...
Loading historical data...
Loading historical data...
Loading historical data...
Loading historical data...
Loading historical data...
Loading historical data...
Loading historical data...

Documentation

Showing up to 5 results
|